Theta_e
315 315 316 316 316 316 316 316 316 316 316 315 316 316 317 317 317 317 317 317 317 317 317 318 317 316 315 315 317 318 321 322 325 327 327 326 325 321 321 323 328 326 328 327
317 316 316 317 317 317 316 316 316 316 317 314 316 316 317 317 317 317 317 317 317 317 317 317 317 316 317 316 315 315 317 319 321 322 321 319 317 316 315 318 324 324 327 325
316 316 315 316 315 315 315 316 316 316 316 315 316 317 318 318 317 317 317 317 317 317 317 317 317 316 316 316 316 316 315 315 317 318 317 316 315 313 313 312 314 323 325 327
316 315 315 315 315 315 315 315 316 315 316 315 316 316 316 316 317 318 317 317 317 317 317 317 316 317 316 315 314 315 315 314 314 315 315 315 314 313 312 311 312 313 314 328
314 314 314 315 315 315 316 315 315 315 316 317 316 316 316 317 317 317 317 318 318 318 318 317 316 315 315 314 314 314 314 313 313 313 313 313 313 311 311 311 311 311 312 326
315 311 314 314 312 314 314 315 316 316 316 316 315 316 316 317 318 318 318 318 317 316 316 316 315 314 313 312 312 312 312 312 312 312 312 312 312 311 311 311 311 311 314 318
314 314 313 312 314 313 315 315 315 317 319 318 316 317 317 317 317 317 317 317 317 315 314 315 316 316 315 313 313 312 312 311 311 312 312 311 311 311 311 311 311 311 313 315
314 315 314 313 315 315 315 316 318 324 319 318 313 316 316 317 316 316 316 316 316 315 314 313 314 315 315 315 315 313 313 312 311 311 311 311 310 310 310 310 310 310 312 315
314 315 313 313 314 315 315 316 316 317 316 316 315 316 317 317 316 316 316 316 316 316 315 314 313 313 315 315 315 314 313 312 311 311 310 310 310 309 310 310 309 310 312 311
315 316 312 311 311 313 314 314 315 315 323 320 316 317 317 318 318 318 317 316 316 315 315 315 314 315 315 315 315 315 314 314 312 311 311 310 309 309 309 309 309 310 311 311
314 314 314 312 313 314 313 313 314 315 316 319 319 317 318 319 318 318 318 316 315 315 315 314 315 315 315 316 316 316 316 316 314 313 311 310 309 308 308 308 309 309 310 311
314 315 317 315 314 313 313 314 314 316 317 315 316 318 317 318 316 315 316 315 314 313 314 314 315 315 316 316 317 316 317 316 315 314 313 311 310 308 308 308 308 309 310 311
313 315 318 319 315 312 313 314 314 315 316 322 320 319 315 314 315 316 315 316 314 313 312 314 315 316 316 316 316 316 316 316 316 315 314 313 311 309 308 308 308 308 309 310
309 311 317 321 319 317 315 314 314 315 317 317 318 318 317 317 318 317 316 315 315 314 314 315 315 315 314 314 314 315 315 315 314 314 315 314 313 311 308 308 309 308 309 311
310 313 312 312 313 312 312 316 316 315 315 316 317 317 317 317 317 317 316 316 316 315 315 314 314 314 313 314 314 313 313 314 313 313 313 313 311 310 309 308 309 308 307 310
311 313 312 312 312 312 313 313 313 315 317 315 316 317 316 316 316 316 316 315 315 315 315 315 315 314 314 313 313 312 313 313 312 311 311 311 309 308 308 308 308 309 307 310
310 309 313 312 312 313 314 313 314 314 316 316 317 316 316 316 316 316 316 315 315 315 314 314 314 314 314 314 312 312 312 312 313 312 311 309 307 307 306 306 307 308 307 309
310 311 313 311 311 312 311 313 315 316 317 317 317 316 316 316 315 315 315 315 314 314 313 314 313 312 313 312 312 312 312 312 312 312 311 309 308 306 305 305 305 306 305 307
306 309 310 311 311 311 311 313 314 316 316 316 316 317 316 315 314 315 315 315 315 315 314 313 312 311 311 311 311 311 310 310 309 309 309 308 306 305 303 303 303 304 304 306
305 306 309 310 310 310 309 309 310 313 314 306 305 306 305 305 316 317 312 312 312 312 312 311 311 311 311 311 310 309 308 308 307 307 306 305 303 302 301 300 300 301 301 302
307 308 308 309 310 310 309 305 308 311 311 303 303 303 303 305 305 304 304 307 309 310 310 309 308 308 308 308 308 307 307 306 306 305 304 302 300 299 298 297 297 297 298 299
305 307 309 308 309 310 304 306 310 303 301 302 303 302 302 303 303 306 301 302 304 305 307 306 305 305 305 305 305 305 305 304 303 302 301 300 299 297 297 296 295 295 296 296
301 302 304 307 307 304 303 303 302 302 301 300 301 300 301 302 304 304 306 301 301 301 302 303 303 302 302 302 302 303 303 302 301 299 298 297 296 295 294 294 294 294 293 293
303 303 303 303 304 303 304 304 301 301 302 300 298 300 303 302 302 306 306 306 302 301 301 301 300 299 298 300 301 303 303 302 300 299 297 295 294 293 293 292 292 292 292 292
301 301 302 302 302 301 301 300 300 303 299 297 297 301 303 303 304 303 305 305 301 300 301 301 299 298 297 296 297 301 301 301 300 298 296 295 293 292 291 291 291 291 292 292
299 299 299 300 299 299 299 298 299 298 297 298 299 300 301 303 304 303 304 303 302 301 301 301 303 303 302 301 297 299 300 298 297 297 297 296 295 294 293 292 292 291 290 290
Wind_Speed
9 9 11 15 16 14 5 7 9 8 6 3 13 19 19 22 25 27 27 27 29 29 26 23 25 29 33 34 36 37 38 40 40 40 40 40 40 41 39 39 43 38 39 36
5 15 14 4 5 7 9 13 15 14 2 3 14 22 20 20 27 28 28 31 32 30 26 25 27 30 34 35 37 39 40 40 41 41 40 38 36 38 38 40 39 40 40 40
17 4 13 7 7 11 14 16 14 15 4 13 13 16 18 16 20 22 27 33 33 29 25 24 26 33 35 37 38 38 40 41 41 40 38 36 35 36 39 38 41 43 42 43
13 13 4 11 16 12 16 14 14 13 8 8 1 10 17 20 19 16 23 28 29 25 22 20 24 27 32 35 36 39 40 41 41 41 41 41 41 39 36 35 38 41 42 44
4 9 13 14 11 10 4 3 6 7 9 12 14 8 9 13 13 14 21 23 21 18 17 16 18 23 29 29 30 34 39 40 41 42 41 42 41 37 33 33 36 38 38 40
4 1 5 7 4 8 10 7 4 1 4 9 14 15 11 14 15 9 12 13 7 7 7 8 11 16 19 22 26 28 33 37 37 39 40 42 39 37 35 36 37 39 37 39
11 10 5 5 6 4 10 7 4 5 6 11 4 8 14 3 12 12 13 17 7 9 7 7 6 7 10 15 18 23 27 30 33 37 37 39 38 35 35 37 36 33 37 39
15 12 16 15 16 10 15 14 7 7 8 12 4 10 6 5 7 14 16 22 17 14 13 13 13 12 12 11 12 15 20 25 29 32 36 37 38 37 38 36 36 35 34 36
12 12 4 2 10 15 8 10 11 11 2 5 9 19 20 12 12 19 18 21 20 13 12 10 13 14 11 10 10 10 12 15 21 26 30 33 36 36 39 36 36 35 35 36
9 16 5 4 3 10 9 4 7 7 6 10 13 16 14 9 12 10 8 15 17 13 10 10 8 7 7 6 5 4 5 7 13 19 24 26 31 34 37 36 37 35 35 36
11 10 4 6 12 15 8 9 7 5 8 6 11 11 5 7 6 5 8 6 7 10 7 8 8 8 8 6 6 5 2 6 10 14 18 22 26 30 33 35 35 34 34 33
11 5 13 18 3 7 12 19 22 9 8 8 12 19 4 6 4 4 7 5 5 6 6 8 8 7 6 5 5 5 7 10 12 13 16 19 22 27 31 34 33 33 32 31
4 3 3 3 6 3 7 15 14 20 3 12 12 14 0 5 1 1 3 4 6 5 7 9 6 6 7 8 11 13 12 14 16 17 19 20 23 27 30 32 31 32 31 29
7 1 5 8 3 9 6 15 19 16 11 25 16 30 19 14 13 7 6 6 4 3 7 9 11 12 12 16 14 18 23 20 22 21 22 25 26 28 29 29 30 29 30 31
6 5 4 10 9 4 6 13 16 21 25 18 28 22 33 16 17 20 20 20 20 20 19 22 26 28 26 25 29 29 29 24 25 28 26 27 30 29 28 29 29 27 28 30
8 4 7 7 12 13 13 17 19 22 26 24 30 27 25 26 25 23 24 24 27 30 27 25 28 29 31 26 26 26 23 27 27 28 28 28 29 29 28 29 29 28 27 30
5 3 3 16 3 8 10 19 20 21 23 22 22 29 15 17 16 18 24 29 31 31 33 31 29 28 32 33 23 24 25 26 28 30 29 27 27 28 28 27 28 29 27 28
6 4 3 12 3 14 13 7 11 17 19 20 22 25 20 24 36 33 34 34 35 36 33 34 31 29 30 28 26 26 28 28 27 25 24 24 26 26 27 27 27 28 26 27
15 9 6 7 11 14 17 10 7 8 13 12 14 19 24 31 28 33 33 28 33 36 32 30 30 27 26 26 26 24 21 21 22 22 21 20 21 23 25 25 25 26 26 28
11 13 11 12 14 11 16 8 8 8 15 6 11 12 13 16 7 12 23 24 21 21 23 21 18 16 15 17 18 19 18 18 18 17 17 17 17 17 19 18 21 21 23 25
3 4 14 14 12 8 15 5 8 10 4 9 15 13 14 7 8 28 29 28 25 22 21 20 18 17 16 15 14 14 14 14 15 15 15 14 14 14 13 14 16 17 19 20
6 4 5 6 6 9 4 4 4 3 11 11 15 17 15 16 18 23 24 20 22 22 19 18 17 15 14 12 11 11 10 10 10 10 10 10 10 10 10 10 11 12 13 14
9 11 7 4 2 4 3 7 3 7 16 20 16 24 22 25 23 21 24 24 21 20 18 14 14 13 11 10 9 6 6 5 5 6 5 5 6 7 8 7 8 9 10 11
5 5 4 1 6 10 14 15 19 21 22 23 28 26 26 29 26 19 19 21 23 21 18 13 11 9 9 9 8 7 6 6 6 6 5 6 6 5 6 7 8 7 6 6
10 6 10 12 16 14 23 27 28 19 19 31 31 27 25 28 32 27 26 22 20 17 17 14 12 10 10 8 9 7 6 6 7 7 8 8 8 8 8 8 7 6 6 3
20 18 12 13 22 17 20 29 20 18 27 31 31 33 32 28 31 31 29 23 21 23 21 21 18 21 19 15 11 8 6 7 7 9 9 9 9 8 7 6 5 5 5 6
Wind_Direction
200 219 215 222 225 251 282 280 264 264 135 263 263 273 271 273 270 267 267 265 263 257 254 243 234 241 235 232 231 230 228 231 228 229 231 232 234 239 237 235 228 232 235 239
186 228 232 266 282 204 236 258 260 271 265 235 280 281 279 271 264 260 263 265 263 265 257 243 234 235 239 237 236 233 232 232 231 233 235 235 236 242 242 238 232 227 232 235
227 233 233 186 207 220 236 243 256 261 267 239 280 275 268 254 249 262 261 259 262 261 260 250 236 236 241 236 234 237 237 235 235 233 233 233 235 239 242 240 234 231 228 232
245 238 172 211 233 219 250 249 253 268 282 275 197 286 289 290 273 244 254 261 264 266 262 254 241 239 245 250 244 239 237 235 235 234 232 234 239 242 248 244 238 235 234 230
200 191 207 218 220 201 248 37 225 250 258 290 243 262 261 257 260 250 254 258 263 265 259 254 245 243 242 247 244 238 235 233 232 232 233 236 240 242 244 241 241 236 233 226
280 357 216 225 69 206 135 119 108 203 278 264 256 242 261 249 250 259 256 262 270 239 250 261 248 232 236 234 238 236 232 231 229 231 232 235 238 237 238 242 241 238 233 230
209 218 174 167 123 127 196 177 224 236 203 253 8 280 245 252 297 278 268 278 258 265 261 257 261 257 250 242 240 231 229 230 231 233 233 235 236 236 238 240 245 242 235 233
215 224 188 188 215 183 198 202 211 231 238 266 95 239 253 211 262 268 263 266 272 266 263 256 256 256 263 253 247 239 236 233 232 235 236 236 237 236 241 243 245 245 240 240
221 231 215 164 208 204 173 218 250 276 350 286 254 265 274 231 237 248 258 258 269 271 263 261 244 248 241 233 230 236 243 240 238 240 242 240 239 237 238 243 244 243 241 244
244 262 165 138 203 244 227 195 201 216 232 240 258 262 262 274 256 269 238 255 283 278 256 249 229 224 209 202 196 205 234 253 250 250 251 248 244 240 240 242 244 244 243 243
221 233 148 161 205 200 190 215 221 233 225 242 261 261 334 43 36 322 318 308 278 277 231 224 201 187 173 169 170 166 209 256 254 253 253 250 247 243 242 241 244 246 245 240
224 259 241 230 172 255 253 221 211 213 205 235 260 267 136 99 60 356 327 315 308 286 216 198 196 181 168 172 194 236 273 280 277 271 265 260 253 246 242 243 247 249 246 242
37 210 222 269 220 204 240 228 240 231 240 223 220 255 186 114 156 18 288 317 331 301 208 181 174 190 220 237 269 260 261 268 275 273 269 267 260 253 247 245 247 251 247 243
94 287 257 242 66 334 228 237 228 232 222 238 233 256 252 248 280 286 264 241 274 315 248 244 238 245 257 272 270 282 261 269 266 266 271 270 266 263 257 252 250 254 249 245
168 211 216 266 281 322 290 292 292 226 236 237 256 256 266 267 271 284 277 272 275 273 273 276 278 282 281 279 286 277 262 267 271 266 266 268 262 261 260 256 254 258 253 247
178 249 203 257 264 262 267 262 260 267 269 246 252 257 265 275 281 282 281 275 278 282 284 277 282 285 288 286 282 266 248 263 267 268 269 267 264 262 262 259 256 253 256 246
163 195 189 274 257 291 266 254 247 244 242 244 248 258 275 283 283 280 281 276 276 279 279 278 279 277 289 291 278 267 269 269 273 274 273 269 265 263 263 260 255 253 258 248
245 200 227 275 298 263 257 230 241 243 255 250 260 270 281 281 279 283 277 276 276 272 275 277 279 275 281 276 274 274 275 275 274 273 271 268 264 261 260 256 250 250 252 252
222 228 247 244 248 278 276 231 199 213 258 246 249 263 269 273 285 281 280 282 273 277 276 272 274 274 272 272 273 273 272 269 269 271 271 267 262 259 257 254 251 250 248 250
222 227 224 239 252 258 264 263 323 234 261 41 359 345 350 355 284 280 332 320 297 283 282 281 275 270 265 266 268 271 270 270 270 269 267 263 259 253 253 251 248 248 247 247
165 198 221 238 248 253 275 5 300 255 288 6 334 318 320 327 299 307 318 303 292 287 284 281 278 272 265 262 261 263 265 264 266 267 265 264 258 250 243 242 245 247 247 246
223 219 207 219 243 250 354 65 222 342 323 314 302 298 295 297 303 320 328 320 304 293 283 283 282 275 268 260 255 252 257 263 267 267 267 262 253 250 244 240 240 242 242 243
239 228 247 246 269 186 206 144 159 303 290 295 276 303 302 303 307 313 315 323 313 301 292 282 276 269 260 244 228 221 230 237 245 241 235 232 232 222 214 207 213 222 224 231
244 160 227 217 226 243 231 259 286 277 280 291 304 302 301 294 290 296 307 303 300 300 298 290 268 257 249 232 222 219 228 236 231 223 204 192 189 193 194 189 188 199 211 236
250 210 238 247 255 260 266 271 278 262 275 300 290 281 285 291 283 278 287 288 284 283 290 293 275 253 247 242 229 214 211 220 215 191 169 157 154 155 161 161 157 154 156 163
243 246 246 252 264 266 273 285 263 275 288 295 285 286 287 279 278 275 275 281 283 280 274 268 264 264 249 239 225 206 186 168 160 158 146 138 135 135 138 145 144 152 178 205